Hourly Weather Jaen

Today, 5 August, Wednesday

Time Temperature Precipitation Wind Pressure Humidity
00:00 +26°C° 0 mm 1 mps 711 mmHg 58%
01:00 +25°C° 0 mm 1 mps 711 mmHg 62%
02:00 +24°C° 0 mm 1 mps 711 mmHg 66%
03:00 +23°C° 0 mm 1 mps 710 mmHg 69%
04:00 +24°C° 0 mm 1 mps 710 mmHg 70%
05:00 +24°C° 0 mm 1 mps 711 mmHg 70%
06:00 +22°C° 0 mm 0 mps 711 mmHg 70%
07:00 +26°C° 0 mm 1 mps 711 mmHg 61%
08:00 +29°C° 0 mm 1 mps 712 mmHg 51%
09:00 +31°C° 0 mm 1 mps 712 mmHg 42%
10:00 +33°C° 0 mm 1 mps 712 mmHg 36%
11:00 +35°C° 0 mm 1 mps 712 mmHg 31%
12:00 +38°C° 0 mm 2 mps 712 mmHg 25%
13:00 +38°C° 0 mm 2 mps 712 mmHg 23%
14:00 +39°C° 0 mm 2 mps 711 mmHg 22%
15:00 +39°C° 0 mm 2 mps 711 mmHg 21%
16:00 +39°C° 0 mm 2 mps 711 mmHg 21%
17:00 +39°C° 0 mm 2 mps 711 mmHg 21%
18:00 +38°C° 0 mm 3 mps 711 mmHg 21%
19:00 +36°C° 0 mm 2 mps 711 mmHg 25%
20:00 +32°C° 0 mm 2 mps 711 mmHg 30%
21:00 +30°C° 0 mm 2 mps 711 mmHg 34%
22:00 +28°C° 0 mm 2 mps 711 mmHg 37%
23:00 +27°C° 0 mm 1 mps 711 mmHg 40%

Tomorrow, 6 August, Thursday

Time Temperature Precipitation Wind Pressure Humidity
00:00 +26°C° 0 mm 1 mps 711 mmHg 43%
01:00 +25°C° 0 mm 1 mps 711 mmHg 47%
02:00 +25°C° 0 mm 1 mps 711 mmHg 51%
03:00 +24°C° 0 mm 1 mps 711 mmHg 54%
04:00 +24°C° 0 mm 1 mps 711 mmHg 55%
05:00 +24°C° 0 mm 1 mps 711 mmHg 56%
06:00 +24°C° 0 mm 1 mps 711 mmHg 56%
07:00 +27°C° 0 mm 1 mps 712 mmHg 48%
08:00 +30°C° 0 mm 1 mps 712 mmHg 39%
09:00 +32°C° 0 mm 2 mps 713 mmHg 31%
10:00 +36°C° 0 mm 2 mps 713 mmHg 26%
11:00 +38°C° 0 mm 2 mps 713 mmHg 22%
12:00 +40°C° 0 mm 2 mps 713 mmHg 17%
13:00 +41°C° 0 mm 2 mps 713 mmHg 15%
14:00 +42°C° 0 mm 2 mps 713 mmHg 14%
15:00 +44°C° 0 mm 3 mps 713 mmHg 12%
16:00 +43°C° 0 mm 3 mps 712 mmHg 13%
17:00 +42°C° 0 mm 3 mps 712 mmHg 14%
18:00 +42°C° 0 mm 3 mps 712 mmHg 15%
19:00 +37°C° 0 mm 3 mps 712 mmHg 20%
20:00 +34°C° 0 mm 2 mps 713 mmHg 25%
21:00 +30°C° 0 mm 2 mps 713 mmHg 31%
22:00 +28°C° 0 mm 2 mps 713 mmHg 37%
23:00 +27°C° 0 mm 2 mps 713 mmHg 42%

Day after tomorrow, 7 August, Friday

Time Temperature Precipitation Wind Pressure Humidity
00:00 +25°C° 0 mm 2 mps 713 mmHg 48%
01:00 +25°C° 0 mm 1 mps 713 mmHg 49%
02:00 +25°C° 0 mm 1 mps 713 mmHg 50%
03:00 +24°C° 0 mm 1 mps 713 mmHg 51%
04:00 +24°C° 0 mm 1 mps 713 mmHg 51%
05:00 +24°C° 0 mm 1 mps 713 mmHg 51%
06:00 +24°C° 0 mm 1 mps 713 mmHg 52%
07:00 +27°C° 0 mm 1 mps 714 mmHg 44%
08:00 +30°C° 0 mm 1 mps 714 mmHg 36%
09:00 +32°C° 0 mm 1 mps 715 mmHg 29%
10:00 +34°C° 0 mm 1 mps 715 mmHg 25%
11:00 +36°C° 0 mm 1 mps 715 mmHg 21%
12:00 +39°C° 0 mm 2 mps 715 mmHg 18%
13:00 +40°C° 0 mm 2 mps 715 mmHg 17%
14:00 +42°C° 0 mm 3 mps 715 mmHg 15%
15:00 +43°C° 0 mm 3 mps 714 mmHg 14%
16:00 +43°C° 0 mm 4 mps 714 mmHg 15%
17:00 +42°C° 0 mm 4 mps 714 mmHg 16%
18:00 +41°C° 0 mm 5 mps 714 mmHg 16%
19:00 +37°C° 0 mm 4 mps 714 mmHg 22%
20:00 +34°C° 0 mm 4 mps 714 mmHg 28%
21:00 +30°C° 0 mm 3 mps 715 mmHg 34%
22:00 +28°C° 0 mm 3 mps 715 mmHg 41%
23:00 +27°C° 0 mm 2 mps 715 mmHg 47%

8 August, Saturday

Time Temperature Precipitation Wind Pressure Humidity
00:00 +26°C° 0 mm 2 mps 715 mmHg 53%
01:00 +25°C° 0 mm 1 mps 715 mmHg 58%
02:00 +24°C° 0 mm 1 mps 714 mmHg 62%
03:00 +23°C° 0 mm 1 mps 714 mmHg 67%
04:00 +23°C° 0 mm 1 mps 714 mmHg 67%
05:00 +21°C° 0 mm 0 mps 714 mmHg 67%
06:00 +22°C° 0 mm 0 mps 714 mmHg 67%
07:00 +26°C° 0 mm 1 mps 715 mmHg 56%
08:00 +29°C° 0 mm 1 mps 715 mmHg 45%
09:00 +32°C° 0 mm 1 mps 715 mmHg 35%
10:00 +34°C° 0 mm 1 mps 715 mmHg 29%
11:00 +36°C° 0 mm 1 mps 715 mmHg 24%
12:00 +39°C° 0 mm 2 mps 716 mmHg 19%
13:00 +40°C° 0 mm 3 mps 715 mmHg 17%
14:00 +42°C° 0 mm 4 mps 715 mmHg 15%
15:00 +43°C° 0 mm 4 mps 714 mmHg 13%
16:00 +42°C° 0 mm 5 mps 714 mmHg 13%
17:00 +41°C° 0 mm 5 mps 714 mmHg 13%
18:00 +41°C° 0 mm 5 mps 714 mmHg 13%
19:00 +37°C° 0 mm 4 mps 714 mmHg 17%
20:00 +34°C° 0 mm 3 mps 714 mmHg 20%
21:00 +30°C° 0 mm 2 mps 714 mmHg 24%
22:00 +29°C° 0 mm 2 mps 714 mmHg 27%
23:00 +27°C° 0 mm 2 mps 713 mmHg 30%

9 August, Sunday

Time Temperature Precipitation Wind Pressure Humidity
00:00 +26°C° 0 mm 2 mps 713 mmHg 33%
01:00 +25°C° 0 mm 1 mps 713 mmHg 37%
02:00 +24°C° 0 mm 1 mps 712 mmHg 40%
03:00 +21°C° 0 mm 0 mps 712 mmHg 44%
04:00 +21°C° 0 mm 0 mps 712 mmHg 45%
05:00 +21°C° 0 mm 0 mps 712 mmHg 45%
06:00 +21°C° 0 mm 0 mps 712 mmHg 46%
07:00 +24°C° 0 mm 0 mps 713 mmHg 39%
08:00 +30°C° 0 mm 1 mps 713 mmHg 32%
09:00 +33°C° 0 mm 1 mps 714 mmHg 24%
10:00 +35°C° 0 mm 1 mps 713 mmHg 22%
11:00 +37°C° 0 mm 2 mps 713 mmHg 19%
12:00 +39°C° 0 mm 3 mps 713 mmHg 16%
13:00 +40°C° 0 mm 3 mps 713 mmHg 14%
14:00 +42°C° 0 mm 4 mps 713 mmHg 12%
15:00 +43°C° 0 mm 5 mps 712 mmHg 9%
16:00 +42°C° 0 mm 4 mps 712 mmHg 9%
17:00 +42°C° 0 mm 4 mps 712 mmHg 9%
18:00 +41°C° 0 mm 4 mps 711 mmHg 9%
19:00 +37°C° 0 mm 3 mps 711 mmHg 13%
20:00 +34°C° 0 mm 3 mps 711 mmHg 17%
21:00 +30°C° 0 mm 2 mps 711 mmHg 20%
22:00 +29°C° 0 mm 2 mps 711 mmHg 25%
23:00 +27°C° 0 mm 1 mps 711 mmHg 29%

10 August, Monday

Time Temperature Precipitation Wind Pressure Humidity
00:00 +26°C° 0 mm 1 mps 711 mmHg 33%
01:00 +25°C° 0 mm 1 mps 710 mmHg 36%
02:00 +25°C° 0 mm 1 mps 710 mmHg 38%
03:00 +22°C° 0 mm 0 mps 710 mmHg 41%
04:00 +22°C° 0 mm 0 mps 710 mmHg 41%
05:00 +23°C° 0 mm 0 mps 710 mmHg 41%
06:00 +23°C° 0 mm 0 mps 710 mmHg 41%
07:00 +27°C° 0 mm 1 mps 711 mmHg 37%
08:00 +29°C° 0 mm 1 mps 711 mmHg 33%
09:00 +31°C° 0 mm 2 mps 711 mmHg 29%
10:00 +34°C° 0.1 mm 2 mps 711 mmHg 27%
11:00 +36°C° 0.1 mm 3 mps 711 mmHg 25%
12:00 +37°C° 0.1 mm 3 mps 711 mmHg 22%
13:00 +38°C° 0 mm 4 mps 711 mmHg 21%
14:00 +40°C° 0 mm 5 mps 711 mmHg 21%
15:00 +41°C° 0 mm 5 mps 710 mmHg 20%
16:00 +40°C° 0 mm 5 mps 710 mmHg 22%
17:00 +39°C° 0 mm 5 mps 710 mmHg 23%
18:00 +37°C° 0 mm 5 mps 710 mmHg 25%
19:00 +35°C° 0 mm 4 mps 710 mmHg 28%
20:00 +32°C° 0 mm 4 mps 710 mmHg 32%
21:00 +28°C° 0 mm 3 mps 711 mmHg 35%
22:00 +27°C° 0 mm 3 mps 711 mmHg 39%
23:00 +26°C° 0 mm 3 mps 711 mmHg 42%
Show more